Regional Weather Roundup
Issued by NWS Sioux Falls, SD

Home | Current Version | Previous Version | Text Only | Print | Product List | Glossary On
Versions: 1 2 3 4 5 6 7 8 9 10 11 12 13 14 15 16 17 18 19 20 21 22 23 24 25 26 27 28 29 30 31 32 33 34 35 36 37 38 39 40 41 42 43 44 45 46 47 48 49 50
000
ASUS43 KFSD 241810
RWRFSD

WEATHER ROUNDUP FOR SE SOUTH DAKOTA/SW MINNESOTA/NW IOWA
NATIONAL WEATHER SERVICE SIOUX FALLS SD
100 PM CDT THU JUL 24 2014

NOTE: "FAIR" INDICATES FEW OR NO CLOUDS BELOW 12,000 FEET WITH NO
SIGNIFICANT WEATHER AND OR OBSTRUCTIONS TO VISIBILITY.


SDZ038>040-050-052>070-241900-
SOUTHEAST SOUTH DAKOTA

CITY           SKY/WX    TMP DP  RH WIND       PRES   REMARKS
CHAMBERLAIN    PTSUNNY   79  66  63 SE22G35   29.85F
6HR MIN TEMP:  65; 6HR MAX TEMP:  81;

HURON          CLOUDY    76  65  68 SE21G33   29.86F
6HR MIN TEMP:  62; 6HR MAX TEMP:  76; 6HR PCP: TRACE;

MADISON        FAIR      68  64  88 S23G31    29.95F
MITCHELL       CLOUDY    81  65  58 SE22G33   29.90F
6HR MIN TEMP:  64; 6HR MAX TEMP:  81; 6HR PCP:  0.04;

SIOUX FALLS    CLOUDY    67  62  84 SE17G26   29.98F
6HR MIN TEMP:  65; 6HR MAX TEMP:  70; 6HR PCP:  0.19;

WINNER         FAIR      90  66  45 S26G37    29.82F
YANKTON        PTSUNNY   81  64  57 SE21G30   29.98R
$$

MNZ071-072-080-081-089-090-097-098-241900-
SOUTHWEST MINNESOTA

CITY           SKY/WX    TMP DP  RH WIND       PRES   REMARKS
FAIRMONT       PTSUNNY   77  57  50 S12       30.10R
JACKSON        LGT RAIN  70  59  68 S10       30.12R
LUVERNE        CLOUDY    66  61  82 S14G24    30.01F
MARSHALL       CLOUDY    75  57  53 S16       29.99F
6HR MIN TEMP:  61; 6HR MAX TEMP:  75;

MONTEVIDEO     PTSUNNY   81  63  54 S14G20    29.99F
PIPESTONE      CLOUDY    68  61  77 S22G30    29.96F
REDWOOD FALLS  PTSUNNY   82  60  47 S16       30.01F
TRACY          CLOUDY    74  61  62 S15G21    29.99F
WINDOM         LGT RAIN  72  61  68 S10       30.07F
WORTHINGTON    CLOUDY    66  61  82 S13       30.07F
$$

IAZ001>003-012>014-020>022-031-032-NEZ013-014-SDZ071-241900-
NORTHWEST IOWA

CITY           SKY/WX    TMP DP  RH WIND       PRES   REMARKS
CHEROKEE       CLOUDY    67  61  83 E3        30.10F
DENISON        CLOUDY    75  59  57 VRB5G17   30.10R
ESTHERVILLE    CLOUDY    72  58  61 S8        30.12R
LE MARS        CLOUDY    72  61  68 SE10G18   30.05F
ORANGE CITY    LGT RAIN  68  61  77 N13G21    30.19R
SHELDON        CLOUDY    66  63  88 VRB6      30.13R
SIOUX CITY     PTSUNNY   77  64  64 SE14G20   30.03F
6HR MIN TEMP:  64; 6HR MAX TEMP:  77; 6HR PCP:  0.09;

SPENCER        CLOUDY    73  58  59 SW6       30.13R
6HR MIN TEMP:  59; 6HR MAX TEMP:  77;

STORM LAKE     CLOUDY    70  59  68 S15       30.09F
$$

ABBREVIATIONS USED IN REMARKS
   TC - TEMPERATURE IN CELSIUS
  WCI - WIND CHILL INDEX
   HX - HEAT INDEX
  VSB - VISIBILITY



USA.gov is the U.S. government's official web portal to all federal, state and local government web resources and services.